Year,Month,Day,Hour,Minute,Value (Times are PST for temperature in C)
2009,09,23,00,00,13.90
2009,09,23,00,01,13.90
2009,09,23,00,02,13.80
2009,09,23,00,03,13.80
2009,09,23,00,04,13.80
2009,09,23,00,05,13.80
2009,09,23,00,06,13.80
2009,09,23,00,07,13.80
2009,09,23,00,08,13.80
2009,09,23,00,09,13.80
2009,09,23,00,10,13.80
2009,09,23,00,11,13.80
2009,09,23,00,12,13.80
2009,09,23,00,13,13.80
2009,09,23,00,14,13.80
2009,09,23,00,15,13.70
2009,09,23,00,16,13.70
2009,09,23,00,17,13.70
2009,09,23,00,18,13.70
2009,09,23,00,19,13.70
2009,09,23,00,20,13.70
2009,09,23,00,21,13.70
2009,09,23,00,22,13.60
2009,09,23,00,23,13.60
2009,09,23,00,24,13.60
2009,09,23,00,25,13.60
2009,09,23,00,26,13.50
2009,09,23,00,27,13.50
2009,09,23,00,28,13.50
2009,09,23,00,29,13.50
2009,09,23,00,30,13.50
2009,09,23,00,31,13.50
2009,09,23,00,32,13.50
2009,09,23,00,33,13.50
2009,09,23,00,34,13.50
2009,09,23,00,35,13.50
2009,09,23,00,36,13.40
2009,09,23,00,37,13.40
2009,09,23,00,38,13.40
2009,09,23,00,39,13.40
2009,09,23,00,40,13.40
2009,09,23,00,41,13.40
2009,09,23,00,42,13.30
2009,09,23,00,43,13.30
2009,09,23,00,44,13.30
2009,09,23,00,45,13.30
2009,09,23,00,46,13.30
2009,09,23,00,47,13.30
2009,09,23,00,48,13.30
2009,09,23,00,49,13.30
2009,09,23,00,50,13.30
2009,09,23,00,51,13.30
2009,09,23,00,52,13.30
2009,09,23,00,53,13.30
2009,09,23,00,54,13.30
2009,09,23,00,55,13.30
2009,09,23,00,56,13.30
2009,09,23,00,57,13.30
2009,09,23,00,58,13.30
2009,09,23,00,59,13.30
2009,09,23,01,00,13.30
2009,09,23,01,01,13.30
2009,09,23,01,02,13.30
2009,09,23,01,03,13.30
2009,09,23,01,04,13.30
2009,09,23,01,05,13.30
2009,09,23,01,06,13.30
2009,09,23,01,07,13.30
2009,09,23,01,08,13.30
2009,09,23,01,09,13.30
2009,09,23,01,10,13.30
2009,09,23,01,11,13.30
2009,09,23,01,12,13.30
2009,09,23,01,13,13.30
2009,09,23,01,14,13.30
2009,09,23,01,15,13.20
2009,09,23,01,16,13.20
2009,09,23,01,17,13.20
2009,09,23,01,18,13.20
2009,09,23,01,19,13.20
2009,09,23,01,20,13.20
2009,09,23,01,21,13.10
2009,09,23,01,22,13.10
2009,09,23,01,23,13.10
2009,09,23,01,24,13.10
2009,09,23,01,25,13.10
2009,09,23,01,26,13.00
2009,09,23,01,27,13.00
2009,09,23,01,28,13.00
2009,09,23,01,29,13.00
2009,09,23,01,30,13.00
2009,09,23,01,31,12.90
2009,09,23,01,32,12.90
2009,09,23,01,33,12.90
2009,09,23,01,34,12.80
2009,09,23,01,35,12.80
2009,09,23,01,36,12.80
2009,09,23,01,37,12.80
2009,09,23,01,38,12.80
2009,09,23,01,39,12.80
2009,09,23,01,40,12.80
2009,09,23,01,41,12.80
2009,09,23,01,42,12.70
2009,09,23,01,43,12.70
2009,09,23,01,44,12.70
2009,09,23,01,45,12.60
2009,09,23,01,46,12.60
2009,09,23,01,47,12.60
2009,09,23,01,48,12.60
2009,09,23,01,49,12.50
2009,09,23,01,50,12.50
2009,09,23,01,51,12.50
2009,09,23,01,52,12.50
2009,09,23,01,53,12.50
2009,09,23,01,54,12.50
2009,09,23,01,55,12.50
2009,09,23,01,56,12.50
2009,09,23,01,57,12.50
2009,09,23,01,58,12.50
2009,09,23,01,59,12.50
2009,09,23,02,00,12.50
2009,09,23,02,01,12.50
2009,09,23,02,02,12.50
2009,09,23,02,03,12.50
2009,09,23,02,04,12.40
2009,09,23,02,05,12.40
2009,09,23,02,06,12.40
2009,09,23,02,07,12.40
2009,09,23,02,08,12.40
2009,09,23,02,09,12.40
2009,09,23,02,10,12.40
2009,09,23,02,11,12.40
2009,09,23,02,12,12.30
2009,09,23,02,13,12.30
2009,09,23,02,14,12.30
2009,09,23,02,15,12.30
2009,09,23,02,16,12.30
2009,09,23,02,17,12.30
2009,09,23,02,18,12.30
2009,09,23,02,19,12.30
2009,09,23,02,20,12.30
2009,09,23,02,21,12.30
2009,09,23,02,22,12.30
2009,09,23,02,23,12.30
2009,09,23,02,24,12.30
2009,09,23,02,25,12.30
2009,09,23,02,26,12.30
2009,09,23,02,27,12.30
2009,09,23,02,28,12.30
2009,09,23,02,29,12.30
2009,09,23,02,30,12.30
2009,09,23,02,31,12.30
2009,09,23,02,32,12.30
2009,09,23,02,33,12.30
2009,09,23,02,34,12.30
2009,09,23,02,35,12.20
2009,09,23,02,36,12.20
2009,09,23,02,37,12.20
2009,09,23,02,38,12.20
2009,09,23,02,39,12.20
2009,09,23,02,40,12.20
2009,09,23,02,41,12.10
2009,09,23,02,42,12.10
2009,09,23,02,43,12.10
2009,09,23,02,44,12.10
2009,09,23,02,45,12.00
2009,09,23,02,46,12.00
2009,09,23,02,47,12.00
2009,09,23,02,48,11.90
2009,09,23,02,49,11.90
2009,09,23,02,50,11.90
2009,09,23,02,51,11.90
2009,09,23,02,52,11.90
2009,09,23,02,53,11.90
2009,09,23,02,54,11.80
2009,09,23,02,55,11.80
2009,09,23,02,56,11.80
2009,09,23,02,57,11.80
2009,09,23,02,58,11.80
2009,09,23,02,59,11.80
2009,09,23,03,00,11.80
2009,09,23,03,01,11.80
2009,09,23,03,02,11.80
2009,09,23,03,03,11.80
2009,09,23,03,04,11.80
2009,09,23,03,05,11.80
2009,09,23,03,06,11.80
2009,09,23,03,07,11.70
2009,09,23,03,08,11.70
2009,09,23,03,09,11.70
2009,09,23,03,10,11.70
2009,09,23,03,11,11.70
2009,09,23,03,12,11.70
2009,09,23,03,13,11.70
2009,09,23,03,14,11.60
2009,09,23,03,15,11.60
2009,09,23,03,16,11.60
2009,09,23,03,17,11.60
2009,09,23,03,18,11.60
2009,09,23,03,19,11.60
2009,09,23,03,20,11.60
2009,09,23,03,21,11.60
2009,09,23,03,22,11.60
2009,09,23,03,23,11.60
2009,09,23,03,24,11.60
2009,09,23,03,25,11.60
2009,09,23,03,26,11.60
2009,09,23,03,27,11.60
2009,09,23,03,28,11.60
2009,09,23,03,29,11.50
2009,09,23,03,30,11.40
2009,09,23,03,31,11.40
2009,09,23,03,32,11.40
2009,09,23,03,33,11.40
2009,09,23,03,34,11.40
2009,09,23,03,35,11.40
2009,09,23,03,36,11.40
2009,09,23,03,37,11.40
2009,09,23,03,38,11.40
2009,09,23,03,39,11.40
2009,09,23,03,40,11.40
2009,09,23,03,41,11.40
2009,09,23,03,42,11.40
2009,09,23,03,43,11.30
2009,09,23,03,44,11.30
2009,09,23,03,45,11.30
2009,09,23,03,46,11.30
2009,09,23,03,47,11.30
2009,09,23,03,48,11.30
2009,09,23,03,49,11.30
2009,09,23,03,50,11.30
2009,09,23,03,51,11.30
2009,09,23,03,52,11.30
2009,09,23,03,53,11.30
2009,09,23,03,54,11.30
2009,09,23,03,55,11.20
2009,09,23,03,56,11.20
2009,09,23,03,57,11.20
2009,09,23,03,58,11.10
2009,09,23,03,59,11.10
2009,09,23,04,00,11.10
2009,09,23,04,01,11.10
2009,09,23,04,02,11.10
2009,09,23,04,03,11.10
2009,09,23,04,04,11.10
2009,09,23,04,05,11.10
2009,09,23,04,06,11.10
2009,09,23,04,07,11.10
2009,09,23,04,08,11.10
2009,09,23,04,09,11.10
2009,09,23,04,10,11.10
2009,09,23,04,11,11.10
2009,09,23,04,12,11.10
2009,09,23,04,13,11.10
2009,09,23,04,14,11.10
2009,09,23,04,15,11.10
2009,09,23,04,16,11.10
2009,09,23,04,17,11.10
2009,09,23,04,18,11.10
2009,09,23,04,19,11.10
2009,09,23,04,20,11.10
2009,09,23,04,21,11.10
2009,09,23,04,22,11.10
2009,09,23,04,23,11.10
2009,09,23,04,24,11.10
2009,09,23,04,25,11.10
2009,09,23,04,26,11.10
2009,09,23,04,27,11.10
2009,09,23,04,28,11.10
2009,09,23,04,29,11.10
2009,09,23,04,30,11.10
2009,09,23,04,31,11.10
2009,09,23,04,32,11.10
2009,09,23,04,33,11.10
2009,09,23,04,34,11.10
2009,09,23,04,35,11.10
2009,09,23,04,36,11.10
2009,09,23,04,37,11.10
2009,09,23,04,38,11.10
2009,09,23,04,39,11.10
2009,09,23,04,40,11.10
2009,09,23,04,41,11.10
2009,09,23,04,42,11.00
2009,09,23,04,43,10.90
2009,09,23,04,44,10.90
2009,09,23,04,45,10.90
2009,09,23,04,46,10.90
2009,09,23,04,47,10.90
2009,09,23,04,48,10.90
2009,09,23,04,49,10.90
2009,09,23,04,50,10.90
2009,09,23,04,51,10.90
2009,09,23,04,52,10.90
2009,09,23,04,53,10.90
2009,09,23,04,54,10.90
2009,09,23,04,55,10.90
2009,09,23,04,56,10.90
2009,09,23,04,57,10.90
2009,09,23,04,58,10.90
2009,09,23,04,59,10.90
2009,09,23,05,00,10.90
2009,09,23,05,01,10.90
2009,09,23,05,02,10.90
2009,09,23,05,03,10.90
2009,09,23,05,04,10.90
2009,09,23,05,05,10.90
2009,09,23,05,06,10.90
2009,09,23,05,07,10.90
2009,09,23,05,08,10.90
2009,09,23,05,09,10.90
2009,09,23,05,10,10.90
2009,09,23,05,11,10.90
2009,09,23,05,12,10.90
2009,09,23,05,13,10.90
2009,09,23,05,14,10.90
2009,09,23,05,15,10.90
2009,09,23,05,16,10.90
2009,09,23,05,17,10.90
2009,09,23,05,18,10.90
2009,09,23,05,19,10.90
2009,09,23,05,20,10.90
2009,09,23,05,21,10.90
2009,09,23,05,22,10.90
2009,09,23,05,23,10.90
2009,09,23,05,24,10.90
2009,09,23,05,25,10.90
2009,09,23,05,26,10.90
2009,09,23,05,27,10.90
2009,09,23,05,28,10.90
2009,09,23,05,29,10.90
2009,09,23,05,30,10.90
2009,09,23,05,31,10.90
2009,09,23,05,32,10.90
2009,09,23,05,33,10.90
2009,09,23,05,34,10.90
2009,09,23,05,35,10.90
2009,09,23,05,36,10.90
2009,09,23,05,37,10.90
2009,09,23,05,38,10.90
2009,09,23,05,39,10.90
2009,09,23,05,40,10.90
2009,09,23,05,41,10.90
2009,09,23,05,42,10.90
2009,09,23,05,43,10.90
2009,09,23,05,44,10.90
2009,09,23,05,45,10.90
2009,09,23,05,46,10.90
2009,09,23,05,47,10.90
2009,09,23,05,48,10.90
2009,09,23,05,49,10.90
2009,09,23,05,50,10.90
2009,09,23,05,51,10.90
2009,09,23,05,52,10.90
2009,09,23,05,53,10.90
2009,09,23,05,54,10.90
2009,09,23,05,55,10.90
2009,09,23,05,56,10.90
2009,09,23,05,57,10.80
2009,09,23,05,58,10.80
2009,09,23,05,59,10.80
2009,09,23,06,00,10.80
2009,09,23,06,01,10.80
2009,09,23,06,02,10.80
2009,09,23,06,03,10.80
2009,09,23,06,04,10.80
2009,09,23,06,05,10.80
2009,09,23,06,06,10.80
2009,09,23,06,07,10.80
2009,09,23,06,08,10.80
2009,09,23,06,09,10.80
2009,09,23,06,10,10.70
2009,09,23,06,11,10.70
2009,09,23,06,12,10.70
2009,09,23,06,13,10.70
2009,09,23,06,14,10.70
2009,09,23,06,15,10.70
2009,09,23,06,16,10.70
2009,09,23,06,17,10.60
2009,09,23,06,18,10.60
2009,09,23,06,19,10.60
2009,09,23,06,20,10.60
2009,09,23,06,21,10.60
2009,09,23,06,22,10.60
2009,09,23,06,23,10.60
2009,09,23,06,24,10.60
2009,09,23,06,25,10.60
2009,09,23,06,26,10.60
2009,09,23,06,27,10.70
2009,09,23,06,28,10.70
2009,09,23,06,29,10.70
2009,09,23,06,30,10.70
2009,09,23,06,31,10.70
2009,09,23,06,32,10.70
2009,09,23,06,33,10.70
2009,09,23,06,34,10.70
2009,09,23,06,35,10.70
2009,09,23,06,36,10.60
2009,09,23,06,37,10.60
2009,09,23,06,38,10.60
2009,09,23,06,39,10.60
2009,09,23,06,40,10.60
2009,09,23,06,41,10.60
2009,09,23,06,42,10.40
2009,09,23,06,43,10.40
2009,09,23,06,44,10.40
2009,09,23,06,45,10.40
2009,09,23,06,46,10.40
2009,09,23,06,47,10.40
2009,09,23,06,48,10.40
2009,09,23,06,49,10.40
2009,09,23,06,50,10.40
2009,09,23,06,51,10.40
2009,09,23,06,52,10.40
2009,09,23,06,53,10.40
2009,09,23,06,54,10.40
2009,09,23,06,55,10.40
2009,09,23,06,56,10.40
2009,09,23,06,57,10.40
2009,09,23,06,58,10.40
2009,09,23,06,59,10.40
2009,09,23,07,00,10.40
2009,09,23,07,01,10.40
2009,09,23,07,02,10.40
2009,09,23,07,03,10.40
2009,09,23,07,04,10.40
2009,09,23,07,05,10.40
2009,09,23,07,06,10.40
2009,09,23,07,07,10.40
2009,09,23,07,08,10.40
2009,09,23,07,09,10.40
2009,09,23,07,10,10.30
2009,09,23,07,11,10.30
2009,09,23,07,12,10.30
2009,09,23,07,13,10.30
2009,09,23,07,14,10.30
2009,09,23,07,15,10.30
2009,09,23,07,16,10.30
2009,09,23,07,17,10.30
2009,09,23,07,18,10.30
2009,09,23,07,19,10.30
2009,09,23,07,20,10.30
2009,09,23,07,21,10.30
2009,09,23,07,22,10.30
2009,09,23,07,23,10.30
2009,09,23,07,24,10.30
2009,09,23,07,25,10.30
2009,09,23,07,26,10.30
2009,09,23,07,27,10.30
2009,09,23,07,28,10.30
2009,09,23,07,29,10.40
2009,09,23,07,30,10.40
2009,09,23,07,31,10.40
2009,09,23,07,32,10.40
2009,09,23,07,33,10.40
2009,09,23,07,34,10.40
2009,09,23,07,35,10.40
2009,09,23,07,36,10.40
2009,09,23,07,37,10.40
2009,09,23,07,38,10.40
2009,09,23,07,39,10.40
2009,09,23,07,40,10.40
2009,09,23,07,41,10.40
2009,09,23,07,42,10.40
2009,09,23,07,43,10.40
2009,09,23,07,44,10.40
2009,09,23,07,45,10.40
2009,09,23,07,46,10.40
2009,09,23,07,47,10.40
2009,09,23,07,48,10.40
2009,09,23,07,49,10.40
2009,09,23,07,50,10.40
2009,09,23,07,51,10.50
2009,09,23,07,52,10.60
2009,09,23,07,53,10.60
2009,09,23,07,54,10.60
2009,09,23,07,55,10.60
2009,09,23,07,56,10.60
2009,09,23,07,57,10.60
2009,09,23,07,58,10.60
2009,09,23,07,59,10.70
2009,09,23,08,00,10.80
2009,09,23,08,01,10.80
2009,09,23,08,02,10.90
2009,09,23,08,03,11.00
2009,09,23,08,04,11.10
2009,09,23,08,05,11.10
2009,09,23,08,06,11.10
2009,09,23,08,07,11.10
2009,09,23,08,08,11.20
2009,09,23,08,09,11.20
2009,09,23,08,10,11.30
2009,09,23,08,11,11.40
2009,09,23,08,12,11.50
2009,09,23,08,13,11.60
2009,09,23,08,14,11.70
2009,09,23,08,15,11.80
2009,09,23,08,16,12.00
2009,09,23,08,17,12.10
2009,09,23,08,18,12.20
2009,09,23,08,19,12.30
2009,09,23,08,20,12.40
2009,09,23,08,21,12.50
2009,09,23,08,22,12.60
2009,09,23,08,23,12.70
2009,09,23,08,24,12.70
2009,09,23,08,25,12.80
2009,09,23,08,26,12.80
2009,09,23,08,27,12.90
2009,09,23,08,28,13.00
2009,09,23,08,29,13.10
2009,09,23,08,30,13.20
2009,09,23,08,31,13.20
2009,09,23,08,32,13.30
2009,09,23,08,33,13.30
2009,09,23,08,34,13.40
2009,09,23,08,35,13.40
2009,09,23,08,36,13.60
2009,09,23,08,37,13.60
2009,09,23,08,38,13.70
2009,09,23,08,39,13.70
2009,09,23,08,40,13.80
2009,09,23,08,41,13.90
2009,09,23,08,42,14.00
2009,09,23,08,43,14.10
2009,09,23,08,44,14.20
2009,09,23,08,45,14.20
2009,09,23,08,46,14.30
2009,09,23,08,47,14.30
2009,09,23,08,48,14.40
2009,09,23,08,49,14.40
2009,09,23,08,50,14.50
2009,09,23,08,51,14.50
2009,09,23,08,52,14.50
2009,09,23,08,53,14.50
2009,09,23,08,54,14.50
2009,09,23,08,55,14.60
2009,09,23,08,56,14.60
2009,09,23,08,57,14.60
2009,09,23,08,58,14.70
2009,09,23,08,59,14.80
2009,09,23,09,00,14.80
2009,09,23,09,01,14.80
2009,09,23,09,02,14.90
2009,09,23,09,03,15.00
2009,09,23,09,04,15.00
2009,09,23,09,05,15.10
2009,09,23,09,06,15.20
2009,09,23,09,07,15.20
2009,09,23,09,08,15.30
2009,09,23,09,09,15.30
2009,09,23,09,10,15.30
2009,09,23,09,11,15.50
2009,09,23,09,12,15.60
2009,09,23,09,13,15.60
2009,09,23,09,14,15.80
2009,09,23,09,15,15.90
2009,09,23,09,16,16.10
2009,09,23,09,17,16.20
2009,09,23,09,18,16.30
2009,09,23,09,19,16.40
2009,09,23,09,20,16.50
2009,09,23,09,21,16.70
2009,09,23,09,22,16.80
2009,09,23,09,23,16.90
2009,09,23,09,24,17.10
2009,09,23,09,25,17.30
2009,09,23,09,26,17.50
2009,09,23,09,27,17.70
2009,09,23,09,28,17.90
2009,09,23,09,29,18.10
2009,09,23,09,30,18.30
2009,09,23,09,31,18.50
2009,09,23,09,32,18.70
2009,09,23,09,33,18.80
2009,09,23,09,34,18.90
2009,09,23,09,35,19.00
2009,09,23,09,36,19.10
2009,09,23,09,37,19.20
2009,09,23,09,38,19.10
2009,09,23,09,39,19.00
2009,09,23,09,40,18.90
2009,09,23,09,41,18.70
2009,09,23,09,42,18.60
2009,09,23,09,43,18.50
2009,09,23,09,44,18.40
2009,09,23,09,45,18.30
2009,09,23,09,46,18.20
2009,09,23,09,47,18.20
2009,09,23,09,48,18.20
2009,09,23,09,49,18.20
2009,09,23,09,50,18.20
2009,09,23,09,51,18.30
2009,09,23,09,52,18.30
2009,09,23,09,53,18.40
2009,09,23,09,54,18.50
2009,09,23,09,55,18.50
2009,09,23,09,56,18.50
2009,09,23,09,57,18.60
2009,09,23,09,58,18.60
2009,09,23,09,59,18.60
2009,09,23,10,00,18.60
2009,09,23,10,01,18.70
2009,09,23,10,02,18.70
2009,09,23,10,03,18.70
2009,09,23,10,04,18.70
2009,09,23,10,05,18.70
2009,09,23,10,06,18.60
2009,09,23,10,07,18.50
2009,09,23,10,08,18.50
2009,09,23,10,09,18.50
2009,09,23,10,10,18.60
2009,09,23,10,11,18.60
2009,09,23,10,12,18.80
2009,09,23,10,13,18.90
2009,09,23,10,14,19.00
2009,09,23,10,15,19.10
2009,09,23,10,16,19.30
2009,09,23,10,17,19.40
2009,09,23,10,18,19.60
2009,09,23,10,19,19.60
2009,09,23,10,20,19.70
2009,09,23,10,21,19.80
2009,09,23,10,22,19.90
2009,09,23,10,23,19.90
2009,09,23,10,24,20.10
2009,09,23,10,25,20.10
2009,09,23,10,26,20.00
2009,09,23,10,27,19.90
2009,09,23,10,28,20.00
2009,09,23,10,29,20.10
2009,09,23,10,30,20.10
2009,09,23,10,31,20.20
2009,09,23,10,32,20.30
2009,09,23,10,33,20.40
2009,09,23,10,34,20.50
2009,09,23,10,35,20.50
2009,09,23,10,36,20.50
2009,09,23,10,37,20.40
2009,09,23,10,38,20.40
2009,09,23,10,39,20.40
2009,09,23,10,40,20.50
2009,09,23,10,41,20.50
2009,09,23,10,42,20.60
2009,09,23,10,43,20.60
2009,09,23,10,44,20.70
2009,09,23,10,45,20.80
2009,09,23,10,46,20.90
2009,09,23,10,47,20.90
2009,09,23,10,48,20.90
2009,09,23,10,49,20.90
2009,09,23,10,50,21.00
2009,09,23,10,51,21.10
2009,09,23,10,52,21.10
2009,09,23,10,53,21.10
2009,09,23,10,54,21.10
2009,09,23,10,55,21.10
2009,09,23,10,56,21.20
2009,09,23,10,57,21.30
2009,09,23,10,58,21.30
2009,09,23,10,59,21.30
2009,09,23,11,00,21.40
2009,09,23,11,01,21.40
2009,09,23,11,02,21.40
2009,09,23,11,03,21.40
2009,09,23,11,04,21.40
2009,09,23,11,05,21.40
2009,09,23,11,06,21.40
2009,09,23,11,07,21.40
2009,09,23,11,08,21.50
2009,09,23,11,09,21.60
2009,09,23,11,10,21.60
2009,09,23,11,11,21.60
2009,09,23,11,12,21.60
2009,09,23,11,13,21.60
2009,09,23,11,14,21.60
2009,09,23,11,15,21.60
2009,09,23,11,16,21.60
2009,09,23,11,17,21.60
2009,09,23,11,18,21.60
2009,09,23,11,19,21.60
2009,09,23,11,20,21.60
2009,09,23,11,21,21.60
2009,09,23,11,22,21.60
2009,09,23,11,23,21.40
2009,09,23,11,24,21.30
2009,09,23,11,25,21.30
2009,09,23,11,26,21.30
2009,09,23,11,27,21.30
2009,09,23,11,28,21.40
2009,09,23,11,29,21.50
2009,09,23,11,30,21.50
2009,09,23,11,31,21.40
2009,09,23,11,32,21.30
2009,09,23,11,33,21.30
2009,09,23,11,34,21.30
2009,09,23,11,35,21.30
2009,09,23,11,36,21.30
2009,09,23,11,37,21.30
2009,09,23,11,38,21.30
2009,09,23,11,39,21.30
2009,09,23,11,40,21.40
2009,09,23,11,41,21.40
2009,09,23,11,42,21.50
2009,09,23,11,43,21.60
2009,09,23,11,44,21.60
2009,09,23,11,45,21.70
2009,09,23,11,46,21.70
2009,09,23,11,47,21.90
2009,09,23,11,48,22.00
2009,09,23,11,49,22.10
2009,09,23,11,50,22.10
2009,09,23,11,51,22.30
2009,09,23,11,52,22.40
2009,09,23,11,53,22.50
2009,09,23,11,54,22.60
2009,09,23,11,55,22.70
2009,09,23,11,56,22.70
2009,09,23,11,57,22.90
2009,09,23,11,58,22.90
2009,09,23,11,59,23.00
2009,09,23,12,00,23.10
2009,09,23,12,01,23.10
2009,09,23,12,02,23.20
2009,09,23,12,03,23.30
2009,09,23,12,04,23.30
2009,09,23,12,05,23.30
2009,09,23,12,06,23.30
2009,09,23,12,07,23.30
2009,09,23,12,08,23.30
2009,09,23,12,09,23.30
2009,09,23,12,10,23.30
2009,09,23,12,11,23.30
2009,09,23,12,12,23.30
2009,09,23,12,13,23.40
2009,09,23,12,14,23.40
2009,09,23,12,15,23.30
2009,09,23,12,16,23.30
2009,09,23,12,17,23.10
2009,09,23,12,18,23.00
2009,09,23,12,19,22.90
2009,09,23,12,20,23.00
2009,09,23,12,21,23.00
2009,09,23,12,22,22.90
2009,09,23,12,23,22.90
2009,09,23,12,24,22.90
2009,09,23,12,25,22.90
2009,09,23,12,26,22.80
2009,09,23,12,27,22.70
2009,09,23,12,28,22.70
2009,09,23,12,29,22.70
2009,09,23,12,30,22.70
2009,09,23,12,31,22.80
2009,09,23,12,32,22.80
2009,09,23,12,33,22.80
2009,09,23,12,34,22.90
2009,09,23,12,35,22.80
2009,09,23,12,36,22.90
2009,09,23,12,37,23.00
2009,09,23,12,38,23.20
2009,09,23,12,39,23.30
2009,09,23,12,40,23.30
2009,09,23,12,41,23.30
2009,09,23,12,42,23.30
2009,09,23,12,43,23.30
2009,09,23,12,44,23.50
2009,09,23,12,45,23.60
2009,09,23,12,46,23.70
2009,09,23,12,47,23.80
2009,09,23,12,48,23.80
2009,09,23,12,49,23.90
2009,09,23,12,50,24.00
2009,09,23,12,51,23.90
2009,09,23,12,52,23.80
2009,09,23,12,53,23.80
2009,09,23,12,54,23.80
2009,09,23,12,55,23.80
2009,09,23,12,56,23.80
2009,09,23,12,57,23.80
2009,09,23,12,58,23.70
2009,09,23,12,59,23.70
2009,09,23,13,00,23.60
2009,09,23,13,01,23.40
2009,09,23,13,02,23.30
2009,09,23,13,03,23.20
2009,09,23,13,04,23.10
2009,09,23,13,05,23.10
2009,09,23,13,06,23.10
2009,09,23,13,07,23.10
2009,09,23,13,08,23.10
2009,09,23,13,09,23.10
2009,09,23,13,10,23.20
2009,09,23,13,11,23.30
2009,09,23,13,12,23.30
2009,09,23,13,13,23.30
2009,09,23,13,14,23.30
2009,09,23,13,15,23.30
2009,09,23,13,16,23.30
2009,09,23,13,17,23.30
2009,09,23,13,18,23.30
2009,09,23,13,19,23.30
2009,09,23,13,20,23.40
2009,09,23,13,21,23.50
2009,09,23,13,22,23.50
2009,09,23,13,23,23.60
2009,09,23,13,24,23.70
2009,09,23,13,25,23.70
2009,09,23,13,26,23.80
2009,09,23,13,27,23.90
2009,09,23,13,28,23.90
2009,09,23,13,29,23.90
2009,09,23,13,30,23.90
2009,09,23,13,31,23.90
2009,09,23,13,32,24.00
2009,09,23,13,33,24.10
2009,09,23,13,34,24.10
2009,09,23,13,35,24.10
2009,09,23,13,36,24.10
2009,09,23,13,37,24.10
2009,09,23,13,38,24.10
2009,09,23,13,39,24.10
2009,09,23,13,40,24.10
2009,09,23,13,41,24.10
2009,09,23,13,42,24.10
2009,09,23,13,43,24.10
2009,09,23,13,44,24.10
2009,09,23,13,45,24.10
2009,09,23,13,46,24.10
2009,09,23,13,47,24.20
2009,09,23,13,48,24.30
2009,09,23,13,49,24.30
2009,09,23,13,50,24.40
2009,09,23,13,51,24.50
2009,09,23,13,52,24.60
2009,09,23,13,53,24.70
2009,09,23,13,54,24.80
2009,09,23,13,55,24.80
2009,09,23,13,56,24.80
2009,09,23,13,57,24.80
2009,09,23,13,58,24.80
2009,09,23,13,59,24.90
2009,09,23,14,00,25.00
2009,09,23,14,01,25.10
2009,09,23,14,02,25.20
2009,09,23,14,03,25.20
2009,09,23,14,04,25.20
2009,09,23,14,05,25.20
2009,09,23,14,06,25.00
2009,09,23,14,07,24.90
2009,09,23,14,08,24.90
2009,09,23,14,09,25.00
2009,09,23,14,10,25.10
2009,09,23,14,11,25.10
2009,09,23,14,12,25.00
2009,09,23,14,13,24.90
2009,09,23,14,14,24.80
2009,09,23,14,15,24.70
2009,09,23,14,16,24.60
2009,09,23,14,17,24.60
2009,09,23,14,18,24.70
2009,09,23,14,19,24.80
2009,09,23,14,20,24.90
2009,09,23,14,21,24.90
2009,09,23,14,22,24.90
2009,09,23,14,23,25.00
2009,09,23,14,24,25.00
2009,09,23,14,25,25.20
2009,09,23,14,26,25.40
2009,09,23,14,27,25.60
2009,09,23,14,28,25.80
2009,09,23,14,29,26.00
2009,09,23,14,30,26.30
2009,09,23,14,31,26.50
2009,09,23,14,32,26.70
2009,09,23,14,33,26.90
2009,09,23,14,34,27.10
2009,09,23,14,35,27.30
2009,09,23,14,36,27.40
2009,09,23,14,37,27.50
2009,09,23,14,38,27.60
2009,09,23,14,39,27.70
2009,09,23,14,40,27.90
2009,09,23,14,41,28.00
2009,09,23,14,42,28.10
2009,09,23,14,43,28.20
2009,09,23,14,44,28.30
2009,09,23,14,45,28.30
2009,09,23,14,46,28.40
2009,09,23,14,47,28.40
2009,09,23,14,48,28.40
2009,09,23,14,49,28.40
2009,09,23,14,50,28.30
2009,09,23,14,51,28.30
2009,09,23,14,52,28.20
2009,09,23,14,53,28.10
2009,09,23,14,54,28.10
2009,09,23,14,55,28.10
2009,09,23,14,56,28.00
2009,09,23,14,57,28.00
2009,09,23,14,58,28.00
2009,09,23,14,59,28.00
2009,09,23,15,00,28.00
2009,09,23,15,01,28.10
2009,09,23,15,02,28.20
2009,09,23,15,03,28.20
2009,09,23,15,04,28.30
2009,09,23,15,05,28.30
2009,09,23,15,06,28.30
2009,09,23,15,07,28.40
2009,09,23,15,08,28.40
2009,09,23,15,09,28.40
2009,09,23,15,10,28.40
2009,09,23,15,11,28.40
2009,09,23,15,12,28.30
2009,09,23,15,13,28.30
2009,09,23,15,14,28.20
2009,09,23,15,15,28.20
2009,09,23,15,16,28.20
2009,09,23,15,17,28.20
2009,09,23,15,18,28.20
2009,09,23,15,19,28.20
2009,09,23,15,20,28.30
2009,09,23,15,21,28.30
2009,09,23,15,22,28.40
2009,09,23,15,23,28.40
2009,09,23,15,24,28.40
2009,09,23,15,25,28.60
2009,09,23,15,26,28.50
2009,09,23,15,27,28.40
2009,09,23,15,28,28.40
2009,09,23,15,29,28.40
2009,09,23,15,30,28.40
2009,09,23,15,31,28.40
2009,09,23,15,32,28.40
2009,09,23,15,33,28.40
2009,09,23,15,34,28.30
2009,09,23,15,35,28.20
2009,09,23,15,36,28.20
2009,09,23,15,37,28.20
2009,09,23,15,38,28.20
2009,09,23,15,39,28.20
2009,09,23,15,40,28.10
2009,09,23,15,41,28.10
2009,09,23,15,42,28.10
2009,09,23,15,43,28.10
2009,09,23,15,44,28.10
2009,09,23,15,45,28.10
2009,09,23,15,46,28.10
2009,09,23,15,47,28.10
2009,09,23,15,48,28.10
2009,09,23,15,49,28.10
2009,09,23,15,50,28.10
2009,09,23,15,51,28.00
2009,09,23,15,52,28.00
2009,09,23,15,53,28.00
2009,09,23,15,54,28.00
2009,09,23,15,55,28.00
2009,09,23,15,56,28.00
2009,09,23,15,57,28.00
2009,09,23,15,58,28.00
2009,09,23,15,59,28.10
2009,09,23,16,00,28.10
2009,09,23,16,01,28.10
2009,09,23,16,02,28.10
2009,09,23,16,03,28.20
2009,09,23,16,04,28.20
2009,09,23,16,05,28.20
2009,09,23,16,06,28.20
2009,09,23,16,07,28.20
2009,09,23,16,08,28.20
2009,09,23,16,09,28.20
2009,09,23,16,10,28.20
2009,09,23,16,11,28.20
2009,09,23,16,12,28.20
2009,09,23,16,13,28.20
2009,09,23,16,14,28.10
2009,09,23,16,15,28.10
2009,09,23,16,16,28.10
2009,09,23,16,17,28.10
2009,09,23,16,18,28.00
2009,09,23,16,19,28.00
2009,09,23,16,20,27.90
2009,09,23,16,21,27.80
2009,09,23,16,22,27.80
2009,09,23,16,23,27.80
2009,09,23,16,24,27.80
2009,09,23,16,25,27.80
2009,09,23,16,26,27.80
2009,09,23,16,27,27.80
2009,09,23,16,28,27.90
2009,09,23,16,29,27.80
2009,09,23,16,30,27.80
2009,09,23,16,31,27.90
2009,09,23,16,32,27.80
2009,09,23,16,33,27.80
2009,09,23,16,34,27.80
2009,09,23,16,35,27.70
2009,09,23,16,36,27.70
2009,09,23,16,37,27.70
2009,09,23,16,38,27.70
2009,09,23,16,39,27.70
2009,09,23,16,40,27.70
2009,09,23,16,41,27.60
2009,09,23,16,42,27.60
2009,09,23,16,43,27.60
2009,09,23,16,44,27.60
2009,09,23,16,45,27.60
2009,09,23,16,46,27.60
2009,09,23,16,47,27.60
2009,09,23,16,48,27.60
2009,09,23,16,49,27.60
2009,09,23,16,50,27.60
2009,09,23,16,51,27.60
2009,09,23,16,52,27.50
2009,09,23,16,53,27.40
2009,09,23,16,54,27.40
2009,09,23,16,55,27.30
2009,09,23,16,56,27.40
2009,09,23,16,57,27.40
2009,09,23,16,58,27.30
2009,09,23,16,59,27.30
2009,09,23,17,00,27.30
2009,09,23,17,01,27.30
2009,09,23,17,02,27.30
2009,09,23,17,03,27.30
2009,09,23,17,04,27.20
2009,09,23,17,05,27.20
2009,09,23,17,06,27.20
2009,09,23,17,07,27.20
2009,09,23,17,08,27.20
2009,09,23,17,09,27.20
2009,09,23,17,10,27.20
2009,09,23,17,11,27.20
2009,09,23,17,12,27.20
2009,09,23,17,13,27.30
2009,09,23,17,14,27.20
2009,09,23,17,15,27.20
2009,09,23,17,16,27.20
2009,09,23,17,17,27.20
2009,09,23,17,18,27.20
2009,09,23,17,19,27.10